BADR-4

Last updated on Sun Jun 21 2026 00:03:04 GMT+0000 (Coordinated Universal Time)

1 29526U 06051A 26171.25621685 .00000150 00000+0 00000+0 0 9992 2 29526 2.0138 81.0913 0004839 359.0702 314.9792 1.00272848 51296
UTC large
Height (km)
Speed (km/s)
/
Latitude / Longitude
Inclination (degrees)
Orbital Period (minutes)
Azimuth
Elevation
Range (km)
Doppler Factor

Next 0 passes for location: London (51.5072 / 0.1276)

No passes found over London.
BADR-4